Location: Mount Cross
(36.6390°N, 79.4878°W)
Time: 14:07:41
(UTC+00:00)

Tiros 1 - Pass Details

Date: 03 April 2023
Orbit: 627 x 661 km, 48.4° (Epoch: 05 June)

Event Time Altitude Azimuth Distance (km) Brightness Sun altitude
Rises 10:29:14 0° 301° (WNW) 2,986 - -7.2°
Exits shadow 10:29:17 - 301° (WNW) 2,971 10.1 -7.2°
Reaches altitude 10° 10:32:08 10° 318° (NW) 2,076 9.5 -6.6°
Maximum altitude 10:35:42 20° 6° (N) 1,508 9.3 -5.9°
Drops below altitude 10° 10:39:16 10° 54° (NE) 2,076 11.0 -5.2°
Sets 10:42:10 0° 71° (ENE) 2,986 13.0 -4.6°
